Location: Borojevi?i
(45.0486°N, 16.2297°E)
Time: 16:03:18
(UTC+00:00)

Cosmos 1140 Rocket - Pass Details

Date: 08 August 2020
Orbit: 745 x 767 km, 74.1° (Epoch: 18 September)

Event Time Altitude Azimuth Distance (km) Brightness Sun altitude
Rises 19:02:09 0° 170° (S) 3,216 6.3 -8.7°
Reaches altitude 10° 19:04:45 10° 160° (SSE) 2,297 5.5 -9.0°
Maximum altitude 19:09:15 30° 100° (E) 1,346 4.3 -9.7°
Drops below altitude 10° 19:13:47 10° 41° (NE) 2,314 5.9 -10.4°
Sets 19:16:23 0° 31° (NNE) 3,244 6.8 -10.7°
